User: anonymous   Login
Location: Caltech
(34.1382°N, 118.1253°W)
Time: 12:42:41
(UTC-07:00)
Language:

Oscar 16 - Orbit

View from above orbital plane
View from above orbital plane
View from above satellite
View from above satellite

Ground track
Ground track

The orbit data is extracted from the following two-line orbital elements,

1 20439U 90005D   14297.41692303  .00000283  00000-0  12058-3 0  1560
2 20439 098.5175 232.3737 0011870 134.1458 009.9445 14.32409322292986
Epoch (UTC): 24 October 2014 10:00:22
Eccentricity: 0.0011870
inclination: 98.5175°
perigee height: 775 km
apogee height: 792 km
right ascension of ascending node: 232.3737°
argument of perigee: 134.1458°
revolutions per day: 14.32409322
mean anomaly at epoch: 9.9445°
orbit number at epoch: 29298

The dashed part of the orbit path shows where the satellite is in the earth's shadow,  

DLR